Moriarty, NM

3:55 PM MST on February 27, 2017 (GMT -0700)
Moriarty

Weather History for K0E0 - September, 2012

Change the Weather History Date:

Wednesday, September 12, 2012

  Actual Average (KABQ) Record (KABQ)
Temperature  
Mean Temperature 58 °F -  
Max Temperature 67 °F 83 °F 95 °F (1979)
Min Temperature 50 °F 57 °F 37 °F (1916)
Degree Days  
Heating Degree Days 6    
Growing Degree Days 8 (Base 50)    
Moisture  
Dew Point 52 °F    
Average Humidity 78    
Maximum Humidity 91    
Minimum Humidity 59    
Precipitation  
Precipitation 0.24 in - - ()
Sea Level Pressure  
Sea Level Pressure 30.22 in    
Wind  
Wind Speed 5 mph (NNE)    
Max Wind Speed 23 mph    
Max Gust Speed 29 mph    
Visibility 10 miles    
Events Rain , Thunderstorm    
Averages and records for this station are not official NWS values.
T = Trace of Precipitation, MM = Missing Value Source: NWS Daily Summary

Daily Weather History Graph

Daily Weather History Graph

Search for Another Location

Airport or City:

Trip Planner

Search our weather history database for the weather conditions in past years. The results will help you decide how hot, cold, wet, or windy it might be!

Date:

Astronomy

Sep. 12, 2012 Rise Set
Actual Time 6:45 AM MDT 7:14 PM MDT
Civil Twilight 6:19 AM MDT 7:39 PM MDT
Nautical Twilight 5:49 AM MDT 8:09 PM MDT
Astronomical Twilight 5:19 AM MDT 8:40 PM MDT
Moon 3:11 AM MDT (9/12) 4:58 PM MDT (9/12)
Length of Visible Light 13h 20m
Length of Day
12h 29m
Waning Crescent, 13% of the Moon is Illuminated
Sep 12
Waning Crescent
Sep 15
New
Sep 22
First Quarter
Sep 29
Full
Oct 8
Last Quarter

Hourly Weather History & Observations

Time (MDT) Temp. Dew Point Humidity Pressure Visibility Wind Dir Wind Speed Gust Speed Precip Events Conditions
12:15 AM 57.9 °F 53.2 °F 84% 30.20 in 10.0 mi WSW 3.5 mph - N/A   Scattered Clouds
12:35 AM 58.1 °F 53.1 °F 83% 30.19 in 10.0 mi WSW 4.6 mph - N/A   Overcast
12:55 AM 56.8 °F 52.2 °F 84% 30.19 in 10.0 mi South 5.8 mph - N/A   Mostly Cloudy
1:15 AM 57.2 °F 51.3 °F 81% 30.19 in 10.0 mi SW 4.6 mph - N/A   Scattered Clouds
1:35 AM 56.8 °F 50.9 °F 80% 30.19 in 10.0 mi SW 4.6 mph - N/A   Scattered Clouds
1:55 AM 56.1 °F 50.4 °F 81% 30.19 in 10.0 mi South 5.8 mph - N/A   Scattered Clouds
2:15 AM 57.0 °F 50.4 °F 78% 30.18 in 10.0 mi SSE 3.5 mph - N/A   Scattered Clouds
2:35 AM 56.5 °F 50.0 °F 79% 30.18 in 10.0 mi SSE 4.6 mph - N/A   Scattered Clouds
2:55 AM 56.5 °F 50.2 °F 79% 30.17 in 10.0 mi Calm Calm - N/A   Mostly Cloudy
3:15 AM 56.7 °F 50.2 °F 79% 30.17 in 10.0 mi South 3.5 mph - N/A   Scattered Clouds
3:35 AM 57.0 °F 49.8 °F 77% 30.16 in 10.0 mi Calm Calm - N/A   Scattered Clouds
3:55 AM 54.3 °F 48.9 °F 82% 30.17 in 10.0 mi Calm Calm - N/A   Mostly Cloudy
4:15 AM 52.7 °F 48.2 °F 85% 30.16 in 10.0 mi ENE 4.6 mph - N/A   Scattered Clouds
4:35 AM 51.8 °F 47.7 °F 86% 30.16 in 10.0 mi ENE 4.6 mph - N/A   Clear
4:55 AM 53.4 °F 48.6 °F 84% 30.17 in 10.0 mi South 3.5 mph - N/A   Clear
5:15 AM 53.4 °F 48.4 °F 83% 30.17 in 10.0 mi SSE 4.6 mph - N/A   Clear
5:35 AM 52.9 °F 47.8 °F 83% 30.18 in 10.0 mi Calm Calm - N/A   Mostly Cloudy
5:55 AM 50.9 °F 46.8 °F 86% 30.18 in 10.0 mi Calm Calm - N/A   Overcast
6:15 AM 52.3 °F 47.1 °F 82% 30.19 in 10.0 mi Calm Calm - N/A   Overcast
6:35 AM 50.9 °F 47.3 °F 87% 30.19 in 10.0 mi Calm Calm - N/A   Overcast
6:55 AM 52.9 °F 47.8 °F 83% 30.20 in 10.0 mi East 3.5 mph - N/A   Overcast
7:15 AM 52.7 °F 48.6 °F 86% 30.20 in 10.0 mi Calm Calm - N/A   Mostly Cloudy
7:35 AM 54.7 °F 49.8 °F 84% 30.21 in 10.0 mi Calm Calm - N/A   Scattered Clouds
7:55 AM 56.1 °F 50.4 °F 81% 30.22 in 10.0 mi Calm Calm - N/A   Clear
8:15 AM 58.5 °F 51.1 °F 76% 30.22 in 10.0 mi Calm Calm - N/A   Mostly Cloudy
8:35 AM 60.8 °F 51.1 °F 70% 30.22 in 10.0 mi Calm Calm - N/A   Mostly Cloudy
8:55 AM 61.7 °F 51.3 °F 69% 30.23 in 10.0 mi Calm Calm - N/A   Mostly Cloudy
9:15 AM 62.6 °F 52.3 °F 69% 30.23 in 10.0 mi Calm Calm - N/A   Light Drizzle
9:35 AM 64.2 °F 52.7 °F 66% 30.23 in 10.0 mi NW 3.5 mph - N/A   Scattered Clouds
9:55 AM 64.6 °F 52.2 °F 64% 30.24 in 10.0 mi Calm Calm - N/A   Mostly Cloudy
10:15 AM 66.2 °F 52.3 °F 61% 30.24 in 10.0 mi NW 3.5 mph - N/A   Overcast
10:35 AM 66.2 °F 52.2 °F 61% 30.24 in 10.0 mi North 4.6 mph - N/A   Overcast
10:55 AM 66.2 °F 53.1 °F 63% 30.24 in 10.0 mi NNE 6.9 mph - N/A   Overcast
11:15 AM 65.7 °F 53.4 °F 65% 30.24 in 10.0 mi North 3.5 mph - N/A   Overcast
11:35 AM 65.5 °F 53.6 °F 65% 30.24 in 10.0 mi North 4.6 mph - N/A   Overcast
11:55 AM 66.2 °F 53.1 °F 63% 30.23 in 10.0 mi NNE 4.6 mph - N/A   Overcast
12:15 PM 66.2 °F 53.1 °F 63% 30.23 in 10.0 mi North 8.1 mph - N/A   Overcast
12:35 PM 66.7 °F 53.4 °F 62% 30.23 in 10.0 mi North 9.2 mph - N/A   Overcast
12:55 PM 65.3 °F 54.5 °F 68% 30.23 in 10.0 mi North 4.6 mph - N/A Rain Light Rain
1:15 PM 64.6 °F 54.5 °F 70% 30.22 in 10.0 mi NNW 4.6 mph - N/A Rain Light Rain
1:35 PM 63.5 °F 55.9 °F 76% 30.22 in 10.0 mi NW 5.8 mph - N/A Rain Light Rain
1:55 PM 64.9 °F 54.7 °F 69% 30.21 in 10.0 mi NNW 3.5 mph - N/A Rain Light Rain
2:15 PM 65.5 °F 54.0 °F 66% 30.20 in 10.0 mi Calm Calm - N/A Rain Light Rain
2:35 PM 66.9 °F 53.8 °F 63% 30.20 in 10.0 mi NW 6.9 mph - N/A   Overcast
2:55 PM 67.8 °F 53.1 °F 59% 30.19 in 10.0 mi NW 6.9 mph - N/A   Mostly Cloudy
3:15 PM 66.6 °F 52.5 °F 61% 30.19 in 10.0 mi WNW 6.9 mph - N/A   Mostly Cloudy
3:55 PM 61.9 °F 55.6 °F 80% 30.19 in 10.0 mi NNW 6.9 mph - N/A Rain , Thunderstorm Rain
4:15 PM 62.6 °F 55.4 °F 77% 30.19 in 10.0 mi NW 4.6 mph - N/A   Overcast
4:35 PM 62.6 °F 55.6 °F 78% 30.19 in 10.0 mi NNW 4.6 mph - N/A Rain , Thunderstorm Rain
4:55 PM 61.0 °F 55.4 °F 82% 30.19 in 10.0 mi NNW 3.5 mph - 0.01 in Rain Rain
5:15 PM 60.8 °F 56.3 °F 85% 30.20 in 7.0 mi North 3.5 mph - 0.01 in Rain , Thunderstorm Thunderstorms and Rain
5:35 PM 59.9 °F 55.4 °F 85% 30.21 in 7.0 mi North 3.5 mph - 0.04 in Rain Rain
5:55 PM 59.7 °F 56.3 °F 88% 30.22 in 2.0 mi NW 5.8 mph - 0.11 in Rain Heavy Rain
6:15 PM 59.0 °F 56.3 °F 91% 30.22 in 5.0 mi NNE 3.5 mph - 0.03 in Rain Rain
6:35 PM 59.0 °F 56.3 °F 91% 30.23 in 7.0 mi NE 3.5 mph - 0.06 in Rain Light Rain
6:55 PM 59.2 °F 56.7 °F 91% 30.23 in 10.0 mi NE 8.1 mph - 0.08 in Rain Light Rain
7:15 PM 57.2 °F 54.3 °F 90% 30.24 in 10.0 mi NE 10.4 mph - 0.01 in   Overcast
7:35 PM 58.1 °F 55.6 °F 91% 30.25 in 10.0 mi ENE 9.2 mph - 0.01 in   Overcast
7:55 PM 57.4 °F 54.3 °F 90% 30.26 in 7.0 mi East 17.3 mph 21.9 mph 0.01 in   Overcast
8:15 PM 56.7 °F 52.9 °F 87% 30.28 in 10.0 mi East 17.3 mph - N/A   Drizzle
8:35 PM 55.6 °F 51.1 °F 85% 30.29 in 10.0 mi East 19.6 mph 28.8 mph N/A Rain Rain
8:55 PM 54.7 °F 50.4 °F 85% 30.29 in 10.0 mi East 23.0 mph 28.8 mph N/A Rain Light Rain
9:15 PM 54.1 °F 49.8 °F 85% 30.30 in 10.0 mi ENE 17.3 mph 26.5 mph 0.01 in Rain Light Rain
9:35 PM 54.0 °F 50.0 °F 86% 30.31 in 10.0 mi ENE 18.4 mph 23.0 mph 0.01 in Rain Light Rain
9:55 PM 53.6 °F 49.8 °F 87% 30.31 in 10.0 mi ENE 12.7 mph 20.7 mph 0.02 in Rain Rain
10:15 PM 54.0 °F 49.3 °F 84% 30.31 in 10.0 mi ENE 19.6 mph 25.3 mph 0.01 in   Overcast
10:35 PM 54.0 °F 49.1 °F 84% 30.32 in 10.0 mi ENE 15.0 mph 23.0 mph 0.01 in   Overcast
10:55 PM 54.1 °F 48.6 °F 81% 30.33 in 10.0 mi East 16.1 mph 21.9 mph 0.01 in   Overcast
11:15 PM 54.1 °F 48.4 °F 81% 30.33 in 10.0 mi East 16.1 mph 23.0 mph N/A   Overcast
11:35 PM 54.0 °F 48.2 °F 81% 30.33 in 10.0 mi East 17.3 mph - N/A   Overcast
11:55 PM 54.1 °F 48.2 °F 80% 30.34 in 10.0 mi ENE 16.1 mph 24.2 mph N/A   Overcast